Погода в Алексеевке

Поиск расширенной информации на нашем сайте:

Полезная информация:

Новости сайта



02.01.2020
Опубликован Долгосрочный прогноз погоды по городам России и ближнего зарубежья на январь 2020 года.
Карты: Прогноз на январь и февраль 2020 года, Сравнение прогнозируемой аномалии приземной температуры воздуха на январь 2020 года по разным моделям.




Погода в Алексеевке - сегодня

Время (UTC), дата Ветер
(°,м/с) 
Видим.   Явления Облачность Т
(°С)
Тd
(°С)
f(%) Тe
(°С)
Pmin
(гПа)
dP
(гПа)
Po
(мм)
O2
(г/м3)
Тmin Tmax R s Состояние
почвы
09 22.10.21 200 (Ю) 7{15}  20000 м  в посл. час крупа{ливн. осадки}  10/10 600 м кучево-дожд. 
[Cb cap]
+2.1 -2.1 74 -1  1017.4  -0.3  728  291           
12 22.10.21 190 (Ю) 9{15}  4000 м  слаб. ливневой снег  10/10 600 м кучево-дожд. 
[Cb cap]
+0.7 -3.5 73 -4  1017.4  -0.2  728  293           
15 22.10.21 220 (ЮЗ) 6{17}  н/о  {ливн. осадки}  10/10 600 м 
[Sc]
+0.6 +0.3 98 -3  1018.5  728  293    +4.1       
18 22.10.21 210 (ЮЗ) н/о  {ливн. осадки}  10/10 600 м 
[Sc]
+1.7 +0.9 94 -1  1019  0.7  729  292    +4.1     
21 22.10.21 200 (Ю) н/о  слаб. ливневой дождь  10/10 600 м кучево-дожд. 
[Cb cap]
+2.7 +2.2 96 -1  1018.4  -0.4  729  290           
00 23.10.21 190 (Ю) н/о  {ливн. осадки}  10/10 600 м 
[Sc]
+3.9 +2.9 93 +1  1016.7  -1.4  728  289           
03 23.10.21 200 (Ю) 8{16}  20000 м    10/10 300 м 
[St]
+3.5 +1.7 88 1016.4  -0.4  727  289           
06 23.10.21 220 (ЮЗ) 7{15}  20000 м    10/10 300 м 
[St]
+5.9 +2.5 79 +3  1017.6  1.6  728  287  +0.5       
09 23.10.21 230 (ЮЗ) 7{15}  20000 м    8/3 600 м средняя 
[Sc|Ac As]
+10.3 +3.6 63 +9  1016.6  -0.3  728  282           
12 23.10.21 240 (ЮЗ) 5{17}  20000 м    8/0 средняя, верхняя 
[Ac lent|Ci fib]
+10.9 +2.7 57 +10  1017.6  1.1  729  282           
15 23.10.21 230 (ЮЗ) н/о    10/10 600 м 
[Sc]
+10.7 +4.1 64 +10  1019.6  1.8  730  283    +12.6       
18 23.10.21 220 (ЮЗ) н/о    10/10 1000 м 
[Sc]
+10.1 +5.8 75 +9  1020.3  0.6  731  283    +12.6       
21 23.10.21 240 (ЮЗ) н/о    9/8 300 м средняя 
[St|Ac trans]
+10.3 +7.6 83 +9  1021.3  732  283           
00 24.10.21 220 (ЮЗ) н/о    10/10 300 м 
[St]
+9.1 +7 87 +8  1022.2  0.7  732  284           
03 24.10.21 210 (ЮЗ) 4000 м  дымка  10/10 300 м 
[St]
+7.5 +5.3 86 +6  1023.2  0.7  733  286           
06 24.10.21 190 (Ю) 20000 м    10/3 600 м средняя 
[Sc|Ac trans]
+9.7 +4.9 72 +8  1023.2  0.3  733  284  +7.4         
09 24.10.21 210 (ЮЗ) 20000 м    10/0 средняя 
[Ac trans]
+13.1 +4.5 56 +12  1022.3  -0.3  733  281           
12 24.10.21 210 (ЮЗ) 20000 м    8/0 средняя 
[Ac trans]
+12.3 +1.1 46 +11  1021.8  -0.6  732  282           
15 24.10.21 190 (Ю) н/о    3/0 средняя 
[Ac trans]
+8 -0.3 56 +7  1022.1  -0.4  732  286    +15.1       
18 24.10.21 200 (Ю) н/о    3/0 верхняя 
[Ci fib]
+3.9 -1.6 67 +3  1022.1  -0.7  731  291    +15.1       
21 24.10.21 200 (Ю) н/о    9/0 верхняя 
[Ci fib]
+3.3 -3 63 +2  1020.9  -1.3  730  291           
00 25.10.21 210 (ЮЗ) н/о    9/0 верхняя 
[Ci]
+3.7 -3.1 61 +2  1019.6  -1.1  730  290           
03 25.10.21 200 (Ю) 20000 м    8/0 средняя, верхняя 
[Ac trans|Ci fib]
+2.2 -2 74 +2  1020  0.1  730  292           
06 25.10.21 190 (Ю) 20000 м    4/0 верхняя 
[Ci fib]
+9.7 -2.9 41 +9  1018.3  -0.4  729  284  +2         
09 25.10.21 200 (Ю) 20000 м    6/0 средняя, верхняя 
[Ac trans|Ci fib]
+12.9 -3.6 31 +12  1016.8  -0.9  729  281           
Время (UTC), дата Ветер
(°,м/с) 
Видим.   Явления Облачность Т
(°С)
Тd
(°С)
f(%) Тe
(°С)
Pmin
(гПа)
dP
(гПа)
Po
(мм)
O2
(г/м3)
Тmin Tmax R s Состояние
почвы

Для получения пояснительной информации подведите курсор к названию столбца.

ПОГОДА в Алексеевке - архив

Всё, что Вы хотите узнать о погоде в Алексеевке - удобно и подробно!

Выберите нужную дату (начиная с 1 января 2019* года) и нажмите кнопку "Найти".
Будут отображены архивные сводки погоды по пункту Алексеевка, начиная с указанной даты.


Отображать данные в формате CSV (для использования в таблицах Excel)


Внимание! Наш архив погоды предназначен исключительно для личного некоммерческого использования в познавательных целях. Если Вам необходимы официальные справки о состоянии погоды (для производственных, юридических, коммерческих и т.п. целей), обращайтесь в органы Росгидромета.

*Примечание: данная дата относится к архиву по метеостанциям СССР (Россия, СНГ, Балтия).
Архив по метеостанциям Зарубежной Европы и Азии (кроме Китая) хранится 10 дней, по другим регионам земного шара (Китай, Африка, Америка, Австралия, Океания) - 1 день.

Алексеевка - район местоположения метеостанции


Название, широта, долгота, высота метеостанции:
Алексеевка 52°ш. 70.9°д. 384 м над ур. моря [Казахстан]

Дополнительная информация

В oтличие oт бoльшинства пoгoдных сайтoв мы публикуем пoдрoбную метеoинфoрмацию в детальнoм прoфессиoнальнoм фoрмате.

Характеристики температуры и влажнoсти вoздуха измеряются на высoте 2 м в тени вдали oт зданий и деревьев.
Скoрoсть ветра измеряется на высoте 10 м (на урoвне рoста челoвека скoрoсть ветра ниже в 1.5-2 раза). Если метеoстанция нахoдится в гoрoде или в лесу, тo скoрoсть ветра занижена на 2-4 м/с пo сравнению с oткрытым местoм. Скoрoсть ветра над акватoриями крупных рек и oзёр, а также на вершинах хoлмoв на 2-5 м/с выше, чем в oбычных услoвиях.
Атмoсфернoе давление в разных тoчках местнoсти мoжет значительнo oтличаться oт давления на метеoстанции, в зависимoсти oт услoвий рельефа (при пoдъёме на 10 м давление пoнижается примернo на 1 мм рт.ст.).